This demonstration page uses our WeatherBlox Daily Observations layout. Learn more.

Left ArrowRight Arrow

Hourly Observations for October 2, 2021

Temp ( °F °C ) Dew Point ( °F °C ) Humidity (%) Winds ( mph kmh ) Pressure ( in mb ) Visibility ( mi km ) Precip ( " mm )
12:53 am 00:53 Clear with Mist and Fog 62 16.7 60 15.6 93 93 E 6 9 30.03 1017 6 10 N/A
1:53 am 01:53 Mostly Cloudy with Mist and Fog 62 16.7 60 15.6 93 93 NE 5 7 30.04 1017 6 10 N/A
2:53 am 02:53 Cloudy 63 17.2 61 16.1 93 93 NW 7 11 30.04 1017 8 13 N/A
3:48 am 03:48 Mostly Cloudy 64 18 57 14 78 78 E 7 11 30.03 1017 10 16 N/A
3:53 am 03:53 Mostly Clear 64 17.8 59 15 84 84 ESE 9 15 30.01 1016 10 16 N/A
4:53 am 04:53 Mostly Clear 60 15.6 56 13.3 86 86 NNW 8 13 30.01 1016 10 16 N/A
5:53 am 05:53 Clear 59 15 57 13.9 93 93 N 6 9 30.01 1016 10 16 N/A
6:53 am 06:53 Clear 58 14.4 56 13.3 93 93 N 6 9 30.03 1017 8 13 N/A
7:53 am 07:53 Sunny 56 13.3 55 12.8 97 97 N 5 7 30.05 1018 7 11 N/A
8:36 am 08:36 Mostly Cloudy 58 14.4 56 13.3 93 93 NNW 3 6 30.10 1019 9 14 N/A
8:53 am 08:53 Cloudy 58 14.4 56 13.3 93 93 NNW 3 6 30.08 1019 10 16 N/A
9:53 am 09:53 Cloudy 64 17.8 57 13.9 78 78 N 5 7 30.08 1019 10 16 N/A
10:12 am 10:12 Partly Cloudy 66 18.9 57 13.9 73 73 N N/A 30.07 1018 10 16 N/A
10:21 am 10:21 Mostly Cloudy 66 18.9 57 13.9 73 73 N N/A 30.07 1018 10 16 N/A
10:30 am 10:30 Partly Cloudy 68 20 58 14.4 70 70 VRB 3 6 30.07 1018 10 16 N/A
10:53 am 10:53 Sunny 70 21.1 59 15 68 68 WNW 6 9 30.08 1019 10 16 N/A
11:53 am 11:53 Partly Cloudy 73 22.8 59 15 62 62 WNW 6 9 30.07 1018 10 16 N/A
12:53 pm 12:53 Sunny 75 23.9 60 15.6 60 60 NNW 7 11 30.05 1018 10 16 N/A
1:53 pm 13:53 Sunny 79 26.1 58 14.4 49 49 W 7 11 30.02 1017 10 16 N/A
2:53 pm 14:53 Mostly Sunny 79 26.1 52 11.1 39 39 VRB 5 7 29.99 1016 10 16 N/A
3:53 pm 15:53 Mostly Sunny 83 28.3 49 9.4 31 31 WNW 10 17 29.95 1014 10 16 N/A
4:53 pm 16:53 Sunny 83 28.3 38 3.3 20 20 WNW 7 11 29.95 1014 10 16 N/A
5:53 pm 17:53 Sunny 83 28.3 44 6.7 25 25 VRB 6 9 29.94 1014 10 16 N/A
6:53 pm 18:53 Sunny 82 27.8 44 6.7 26 26 NW 6 9 29.95 1014 10 16 N/A
7:53 pm 19:53 Clear 77 25 43 6.1 30 30 NW 5 7 29.97 1015 10 16 N/A
8:53 pm 20:53 Clear 71 21.7 42 5.6 35 35 N 7 11 30.00 1016 10 16 N/A
9:53 pm 21:53 Clear 69 20.6 42 5.6 38 38 NNE 8 13 30.01 1016 10 16 N/A
10:53 pm 22:53 Clear 64 17.8 43 6.1 46 46 NW 3 6 30.02 1017 8 13 N/A
11:53 pm 23:53 Clear 63 17.2 43 6.1 48 48 NNW 5 7 30.03 1017 10 16 N/A

Powered by AerisWeather